CW9336 Weather Reports


Display with metric or nautical units.
time (UTC)temp
F
wind
direction
speed
MPH
gust
MPH
rain 1hr
in
rain 24hr
in
rain mn
in
humidity
%
barometer
mb
20260504081519 51 223 3.0 8.0 0.00 0.00 0.00 66 1007.0
20260504044528 52 217 3.0 11.0 0.00 0.00 0.00 64 1009.4
20260504043028 52 242 4.0 8.0 0.00 0.00 0.00 64 1009.5
20260504041527 52 230 3.0 16.0 0.00 0.00 0.00 64 1009.6
20260504040031 51 213 4.0 11.0 0.00 0.00 0.00 64 1009.7
20260504034539 51 232 3.0 9.0 0.00 0.00 0.00 65 1009.9
20260504033020 51 256 4.0 9.0 0.00 0.00 0.00 65 1009.9
20260504031518 51 242 5.0 11.0 0.00 0.00 0.00 65 1010.0
20260504030029 51 232 4.0 9.0 0.00 0.00 0.00 65 1010.2
20260504024519 51 201 5.0 14.0 0.00 0.00 0.00 65 1010.4
20260504023020 51 234 4.0 10.0 0.00 0.00 0.00 66 1010.6
20260504021519 51 245 3.0 9.0 0.00 0.00 0.00 67 1010.7
20260504020025 51 224 3.0 7.0 0.00 0.00 0.00 67 1010.8
20260504014525 52 221 3.0 9.0 0.00 0.00 0.00 66 1010.7
20260504013026 52 236 2.0 7.0 0.00 0.00 0.00 65 1010.7
20260504011526 52 242 3.0 7.0 0.00 0.00 0.00 64 1010.8
20260504010026 53 234 2.0 4.0 0.00 0.00 0.00 62 1010.9
20260504004503 53 235 2.0 6.0 0.00 0.00 0.00 62 1010.9
20260504003004 53 212 2.0 7.0 0.00 0.00 0.00 61 1011.0
20260504001505 53 232 2.0 6.0 0.00 0.00 0.00 60 1011.1
20260504000010 53 299 1.0 7.0 0.00 0.00 0.00 60 1011.2
20260503234511 54 242 4.0 10.0 0.00 0.00 0.00 59 1011.3
20260503233009 54 205 2.0 7.0 0.00 0.00 0.00 60 1011.5
20260503231516 55 214 1.0 9.0 0.00 0.00 0.00 59 1011.5
20260503230013 56 223 4.0 16.0 0.00 0.00 0.00 56 1011.5
20260503224515 58 225 5.0 15.0 0.00 0.00 0.00 54 1011.4
20260503223022 61 352 4.0 12.0 0.00 0.00 0.00 48 1011.1
20260503221516 61 225 3.0 15.0 0.00 0.00 0.00 42 1011.0
20260503220023 61 303 5.0 15.0 0.00 0.00 0.00 43 1011.0
20260503214521 61 11 4.0 13.0 0.00 0.00 0.00 42 1010.8
20260503213027 61 241 5.0 13.0 0.00 0.00 0.00 42 1011.0
20260503211523 62 243 3.0 12.0 0.00 0.00 0.00 40 1011.0
20260503210022 62 255 7.0 15.0 0.00 0.00 0.00 37 1011.0
20260503204531 63 9 4.0 13.0 0.00 0.00 0.00 1011.0
20260503203025 64 246 4.0 13.0 0.00 0.00 0.00 38 1011.3
20260503201526 63 193 5.0 16.0 0.00 0.00 0.00 37 1011.3
20260503200026 63 253 4.0 11.0 0.00 0.00 0.00 36 1011.6
20260503194528 63 230 5.0 14.0 0.00 0.00 0.00 36 1011.8
20260503193025 63 323 6.0 16.0 0.00 0.00 0.00 1011.9
20260503191527 63 194 4.0 14.0 0.00 0.00 0.00 40 1012.0
20260503190027 63 341 6.0 19.0 0.00 0.00 0.00 38 1012.2
20260503184530 63 244 4.0 16.0 0.00 0.00 0.00 36 1012.5
20260503183040 63 300 4.0 15.0 0.00 0.00 0.00 1012.6
20260503181508 62 203 5.0 17.0 0.00 0.00 0.00 36 1012.9
20260503180021 61 246 7.0 16.0 0.00 0.00 0.00 37 1013.2
20260503174519 62 263 5.0 18.0 0.00 0.00 0.00 1013.3
20260503173013 63 265 3.0 18.0 0.00 0.00 0.00 40 1013.5
20260503171517 62 142 2.0 14.0 0.00 0.00 0.00 41 1013.7